Regional Weather Roundup
Issued by NWS

Home | Current Version | Previous Version | Graphics & Text | Print | Product List | Glossary On
Versions: 1 2 3 4 5 6 7 8 9 10 11 12 13 14 15 16 17 18 19 20 21 22 23 24 25 26 27 28 29 30 31 32 33 34 35 36 37 38 39 40 41 42 43 44 45 46 47 48 49 50
000
ASUS43 KIND 211209
RWRIN

WEATHER ROUNDUP FOR INDIANA
NATIONAL WEATHER SERVICE INDIANAPOLIS IN
800 AM EDT SAT APR 21 2018

NOTE: "FAIR" INDICATES FEW OR NO CLOUDS BELOW 12,000 FEET WITH NO
SIGNIFICANT WEATHER AND/OR OBSTRUCTIONS TO VISIBILITY.

* - STATION DOES NOT REPORT WEATHER SUCH AS PRECIPITATION OR FOG.

+ - STATION NOT QUALITY CONTROLLED BY THE NATIONAL WEATHER SERVICE.
    USE DATA WITH CAUTION...ESPECIALLY DEWPOINT AND RELATIVE
    HUMIDITY OBSERVATIONS.

INZ001>003-010>013-019-020-211300-
NORTHWEST INDIANA

CITY           SKY/WX    TMP DP  RH WIND       PRES   REMARKS
GARY /AIRPORT/ CLOUDY    39  32  75 CALM      30.45S
KNOX *+        FAIR      36  28  75 CALM      30.45R
LA PORTE +     FAIR      38  26  60 CALM      30.45R
6HR MIN TEMP:  32; 6HR MAX TEMP:  39;

MICHIGAN CITY+ FAIR      32  25  74 CALM      30.45R
MONTICELLO +   FAIR      41  28  59 CALM      30.45R
6HR MIN TEMP:  36; 6HR MAX TEMP:  42;

RENSSELAER +   FAIR      39  23  52 NE6       30.44S WCI  35
VALPARAISO     FAIR      41  23  48 CALM      30.45R
6HR MIN TEMP:  38; 6HR MAX TEMP:  41;


$$

LMZ046-743>745-211300-
SOUTHERN LAKE MICHIGAN

STATION/POSITION TIME  TEMP    WIND        PRES    WAVE
                       AIR SEA DIR/SP/G            HT
                 (UTC) (F)     (DEG/KT/KT) (MB)    (FT)
BURNS HARBOR     1140   41      60/  2/  3 1031.2R
MICHIGAN CITY    1140   40        CALM       N/A

$$

INZ004-005-014>016-021>024-211300-
NORTH CENTRAL INDIANA

CITY           SKY/WX    TMP DP  RH WIND       PRES   REMARKS
GOSHEN         FAIR      36  27  69 CALM      30.45R
6HR MIN TEMP:  31; 6HR MAX TEMP:  37;

LOGANSPORT +   FAIR      37  32  81 E5        30.45R WCI  34
PERU/GRISSOM   CLOUDY    37  27  65 SE5       30.44R WCI  34
ROCHESTER +    FAIR      41  34  75 CALM      30.45R
SOUTH BEND     FAIR      35  25  66 CALM      30.45R
6HR MIN TEMP:  29; 6HR MAX TEMP:  36;

WARSAW +       FAIR      37  28  70 SE5       30.45R WCI  34

$$

INZ006>009-017-018-025>027-211300-
NORTHEAST INDIANA

CITY           SKY/WX    TMP DP  RH WIND       PRES   REMARKS
ANGOLA *+      FAIR      37  25  60 CALM      30.46R
AUBURN +       FAIR      32  28  86 CALM      30.47S
FORT WAYNE     PTSUNNY   36  27  69 NE3       30.47R
6HR MIN TEMP:  33; 6HR MAX TEMP:  40;

HUNTINGTON +   FAIR      37  28  72 CALM      30.46R
6HR MIN TEMP:  33; 6HR MAX TEMP:  39;


$$

INZ028-029-035-036-043>045-051>053-211300-
WEST CENTRAL INDIANA

CITY           SKY/WX    TMP DP  RH WIND       PRES   REMARKS
CRAWFORDSVL +  FAIR      40  31  67 E5        30.43R WCI  37
6HR MIN TEMP:  34; 6HR MAX TEMP:  40;

GREENCASTLE +  FAIR      41  28  60 CALM      30.43R
LAFAYETTE      FAIR      40  31  70 CALM      30.44R
6HR MIN TEMP:  37; 6HR MAX TEMP:  43;

TERRE HAUTE    FAIR      41  32  70 NE5       30.42R
6HR MIN TEMP:  36; 6HR MAX TEMP:  41;


$$

INZ030>032-037>040-046>048-054>057-064-065-211300-
CENTRAL INDIANA

CITY           SKY/WX    TMP DP  RH WIND       PRES   REMARKS
COLUMBUS       MOSUNNY   39 N/A N/A NE3       30.44R
FRANKFORT +    FAIR      43  33  68 SE7       30.45R
6HR MIN TEMP:  35; 6HR MAX TEMP:  43;

GREENWOOD *+   FAIR      41  26  55 E5        30.43R
INDIANAPOLIS   FAIR      44  25  47 E10       30.43R
6HR MIN TEMP:  43; 6HR MAX TEMP:  45;

-EAGLE CREEK   FAIR      43  28  55 CALM      30.43R
6HR MIN TEMP:  37; 6HR MAX TEMP:  43;

KOKOMO +       FAIR      38  32  79 E5        30.46R WCI  34
6HR MIN TEMP:  33; 6HR MAX TEMP:  39;

MARION +       FAIR      37  29  72 CALM      30.46R
MT COMFORT *+  FAIR      39  32  75 E3        30.44R
SHELBYVILLE    FAIR      42  28  57 E7        30.42R
6HR MIN TEMP:  38; 6HR MAX TEMP:  43;

ZIONSVILLE +   FAIR      39  29  67 E5        30.44S WCI  36
6HR MIN TEMP:  33; 6HR MAX TEMP:  39;


$$

INZ033-034-041-042-049-050-058-059-211300-
EAST CENTRAL INDIANA

CITY           SKY/WX    TMP DP  RH WIND       PRES   REMARKS
MUNCIE         FAIR      37  29  72 E6        30.44S WCI  32
6HR MIN TEMP:  32; 6HR MAX TEMP:  40;

RICHMOND +     FAIR      37  28  70 E9        30.45R WCI  31

$$

INZ060-061-067>069-081>083-085>088-211300-
SOUTHWEST INDIANA

CITY           SKY/WX    TMP DP  RH WIND       PRES   REMARKS
EVANSVILLE     FAIR      43  32  65 NE7       30.37R
6HR MIN TEMP:  42; 6HR MAX TEMP:  48;

HUNTINGBURG +  FAIR      43  30  60 NE6       30.38R
6HR MIN TEMP:  41; 6HR MAX TEMP:  46;

WASHINGTON +   FAIR      40  29  63 NE3       30.40R
6HR MIN TEMP:  38; 6HR MAX TEMP:  45;


$$

INZ062-063-066-070>080-084-089>092-211300-
SOUTH CENTRAL AND SOUTHEAST INDIANA

CITY           SKY/WX    TMP DP  RH WIND       PRES   REMARKS
BATESVILLE +   SUNNY     39  27  60 MISG      30.42S
BEDFORD +      FAIR      41  25  52 NE6       30.40R
BLOOMINGTON    FAIR      43  28  55 E3        30.41R
6HR MIN TEMP:  36; 6HR MAX TEMP:  44;

FRENCH LICK *+ FAIR      41  23  48 NE6       30.39R
MADISON *+     FAIR      43  27  52 E7        30.43R
NORTH VERNON + FAIR      41  27  56 E8        30.43R
SEYMOUR +      FAIR      41  30  65 E6        30.41R

$$





USA.gov is the U.S. government's official web portal to all federal, state and local government web resources and services.